Location: Cuzcurrita-R�o Tir�n
(42.5415°N, 2.9642°W)
Time: 21:52:25
(UTC+00:00)

BREEZE-M DEB (TANK) - Pass Details

Date: 17 January 2021
Orbit: 311 x 13784 km, 49.6° (Epoch: 02 March)

Event Time Altitude Azimuth Distance (km) Brightness Sun altitude
Rises 18:40:28 0° 289° (WNW) 2,307 7.0 -17.0°
Reaches altitude 10° 18:42:52 10° 313° (NW) 1,225 5.1 -17.5°
Enters shadow 18:44:08 17° 347° (NNW) 899 3.9 -17.7°
